Location: Beuvrequen
(50.8014°N, 1.6652°E)
Time: 14:52:30
(UTC+00:00)

Lacrosse 4 Rocket - Pass Details

Date: 07 June 2022
Orbit: 541 x 611 km, 68.0° (Epoch: 30 June)

Event Time Altitude Azimuth Distance (km) Brightness Sun altitude
Exits shadow 02:13:00 12° 235° (SW) 1,735 3.3 -10.2°
Maximum altitude 02:16:44 50° 310° (NW) 723 2.0 -9.9°
Drops below altitude 10° 02:20:46 10° 27° (NNE) 1,849 5.6 -9.5°
Sets 02:23:01 0° 33° (NNE) 2,738 7.3 -9.3°
